Кайеркан

Россия / Красноярский край     69°21′05″N   87°46′01″E
темп.,
°C
ветер,
м/с
пор.,
м/с
влажн.,
%
обл.,
%
осадки,
мм/ч
давл.,
гПа
погр.,
м
24 октября, вс
вс2401:00−7юв2394100 0.2 99344
04:00−8в329283 0.0 99219
07:00−7вюв359277 0.0 99094
10:00−6в369098 0.0 990108
13:00−6в358896 0.0 989108
16:00−6в3489100 0.0 98974
19:00−5в3393100 0.0 98967
22:00−5в2396100 0.1 98984
25 октября, пн
пн2501:00−5в2396100 0.4 98996
04:00−5вюв2297100 0.5 99072
07:00−4ю61195100 1.6 991546
10:00−5ю61195100 0.8 993531
13:00−6ю51094100 1.4 994607
16:00−6ююв51093100 0.4 995594
19:00−7ю61193100 0.8 996488
22:00−8ююз51094100 0.4 997452
26 октября, вт
вт2601:00−10ююз489597 0.8 999298
04:00−10ююз5109499 0.5 1002445
07:00−10ююз51194100 1.1 1003424
10:00−9ююз5109499 0.6 1004352
13:00−9ююз5119498 1.2 1006442
16:00−12ю479475 0.1 100787
19:00−12ю5109125 0.1 1007159
22:00−16юв229393 0.0 100610
27 октября, ср
ср2701:00−15вюв2291100 0.0 100512
04:00−12в3393100 0.0 100243
07:00−13всв2294100 0.0 99921
10:00−14с3895100 0.0 997152
13:00−13с51392100 0.0 995282
16:00−13с51288100 0.0 996267
19:00−17ссз4796100 0.0 998171
22:00−20ссз2110094 0.0 100012
28 октября, чт
чт2801:00−22зюз11100100 0.1 10039
04:00−23юз22100100 0.1 100515
07:00−24ююз22100100 0.1 100816
10:00−25ююз32100100 0.1 101019
13:00−22ююз339999 0.1 101337
16:00−22ю229895 0.1 101629
19:00−24юв229989 0.1 101710
22:00−26юв229978 0.0 10189